Weather History for St. Charles, MO

Change the Weather History Date:

Sunday, June 2, 2013

  Actual Average (KSTL) Record (KSTL)
Temperature  
Mean Temperature 64 °F 72 °F  
Max Temperature 69 °F 81 °F 100 °F (1934)
Min Temperature 61 °F 63 °F 48 °F (1956)
Degree Days  
Heating Degree Days 0 1  
Month to date heating degree days 2  
Since 1 June heating degree days 2  
Since 1 July heating degree days 4532  
Cooling Degree Days 0 7  
Month to date cooling degree days 14  
Year to date cooling degree days 188  
Since 1 June cooling degree days 14  
Growing Degree Days 14 (Base 50)    
Moisture  
Dew Point 56 °F    
Average Humidity 76    
Maximum Humidity 84    
Minimum Humidity 68    
Precipitation  
Precipitation 0.00 in 0.15 in 1.81 in (1983)
Month to date precipitation 0.31  
Year to date precipitation 16.68  
Snow  
Snow 0.00 in 0.00 in 0.00 in (2012)
Month to date snowfall 0.0  
Since 1 June snowfall 0.0  
Since 1 July snowfall 17.7  
Snow Depth -    
Sea Level Pressure  
Sea Level Pressure 29.96 in    
Wind  
Wind Speed 11 mph (NW)    
Max Wind Speed 14 mph    
Max Gust Speed 22 mph    
Visibility 10 miles    
Events      
T = Trace of Precipitation, MM = Missing Value Source: NWS Daily Summary

Daily Weather History Graph

Daily Weather History Graph

Search for Another Location

Airport:

Trip Planner

Search our weather history database for the weather conditions in past years. The results will help you decide how hot, cold, wet, or windy it might be!

Date:

Astronomy

Jun. 02, 2013 Rise Set
Actual Time 5:37 AM CDT 8:22 PM CDT
Civil Twilight 5:06 AM CDT 8:53 PM CDT
Nautical Twilight 4:26 AM CDT 9:33 PM CDT
Astronomical Twilight 3:42 AM CDT 10:18 PM CDT
Moon 2:01 AM CDT (6/2) 2:55 PM CDT (6/2)
Length of Visible Light 15h 47m
Length of Day
14h 44m
Waning Crescent, 30% of the Moon is Illuminated
Jun 2
Waning Crescent
Jun 8
New
Jun 16
First Quarter
Jun 23
Full
Jun 29
Last Quarter

Hourly Weather History & Observations

Time (CDT) Temp. Dew Point Humidity Pressure Visibility Wind Dir Wind Speed Gust Speed Precip Events Conditions
12:54 AM 63.0 °F 57.0 °F 81% 29.88 in 10.0 mi WSW 10.4 mph - 0.00 in   Overcast
1:54 AM 64.0 °F 57.0 °F 78% 29.88 in 10.0 mi West 12.7 mph - N/A   Overcast
2:54 AM 64.0 °F 55.9 °F 75% 29.88 in 10.0 mi West 11.5 mph - N/A   Overcast
3:28 AM 62.6 °F 55.4 °F 77% 29.89 in 10.0 mi WNW 13.8 mph 21.9 mph N/A   Overcast
3:54 AM 63.0 °F 57.0 °F 81% 29.88 in 10.0 mi WNW 12.7 mph 20.7 mph N/A   Overcast
4:54 AM 63.0 °F 57.0 °F 81% 29.89 in 10.0 mi West 10.4 mph - N/A   Overcast
5:52 AM 62.6 °F 57.2 °F 82% 29.93 in 10.0 mi WNW 12.7 mph - N/A   Overcast
5:54 AM 62.1 °F 57.0 °F 84% 29.92 in 10.0 mi WNW 12.7 mph - N/A   Overcast
6:50 AM 62.6 °F 57.2 °F 82% 29.94 in 10.0 mi WNW 10.4 mph - N/A   Overcast
6:54 AM 63.0 °F 57.0 °F 81% 29.93 in 10.0 mi NW 8.1 mph - N/A   Overcast
7:54 AM 63.0 °F 57.0 °F 81% 29.94 in 10.0 mi NW 9.2 mph - N/A   Overcast
8:54 AM 63.0 °F 57.0 °F 81% 29.96 in 10.0 mi NW 10.4 mph - N/A   Overcast
9:42 AM 64.4 °F 57.2 °F 77% 29.97 in 10.0 mi WNW 13.8 mph - N/A   Overcast
9:49 AM 64.4 °F 57.2 °F 77% 29.97 in 10.0 mi WNW 12.7 mph - N/A   Overcast
9:54 AM 64.0 °F 57.0 °F 78% 29.97 in 10.0 mi WNW 13.8 mph - N/A   Overcast
10:54 AM 64.9 °F 57.0 °F 75% 29.97 in 10.0 mi WNW 10.4 mph - N/A   Overcast
11:23 AM 68.0 °F 57.2 °F 68% 29.97 in 10.0 mi NW 8.1 mph - N/A   Mostly Cloudy
11:45 AM 66.2 °F 57.2 °F 73% 29.98 in 10.0 mi NW 8.1 mph - N/A   Mostly Cloudy
11:54 AM 66.9 °F 57.0 °F 70% 29.98 in 10.0 mi WNW 9.2 mph - N/A   Overcast
12:54 PM 66.0 °F 57.0 °F 73% 29.99 in 10.0 mi NNW 11.5 mph - N/A   Overcast
1:54 PM 66.9 °F 55.9 °F 68% 29.99 in 10.0 mi WNW 10.4 mph - N/A   Overcast
2:54 PM 64.9 °F 55.0 °F 70% 30.00 in 10.0 mi NW 9.2 mph - N/A   Overcast
3:54 PM 64.9 °F 55.0 °F 70% 30.00 in 10.0 mi NW 11.5 mph - N/A   Overcast
4:54 PM 64.9 °F 55.9 °F 73% 29.99 in 10.0 mi NW 8.1 mph - N/A   Overcast
5:54 PM 64.0 °F 54.0 °F 70% 29.99 in 10.0 mi NNW 10.4 mph - N/A   Overcast
6:54 PM 64.0 °F 55.9 °F 75% 29.99 in 10.0 mi North 9.2 mph - N/A   Overcast
7:54 PM 63.0 °F 54.0 °F 72% 30.00 in 10.0 mi North 9.2 mph - N/A   Overcast
8:54 PM 62.1 °F 53.1 °F 72% 30.01 in 10.0 mi NNW 8.1 mph - N/A   Overcast
9:54 PM 62.1 °F 53.1 °F 72% 30.02 in 10.0 mi North 8.1 mph - N/A   Overcast
10:54 PM 61.0 °F 52.0 °F 72% 30.02 in 10.0 mi NNE 9.2 mph - N/A   Overcast
11:54 PM 61.0 °F 52.0 °F 72% 30.02 in 10.0 mi NNE 9.2 mph - N/A   Overcast